Home   Weather   Santa Rosa   Past weeks

Flag for USA Past Weather in Santa Rosa, California, USA — Yesterday and Last 2 Weeks

Now
60 °F

Passing clouds.


Feels Like: 60 °F
Forecast: 50 / 87 °F
Wind: No wind

Location: Santa Rosa Sonoma County Airport

Current Time: May 22, 2017 at 10:28:19 am

Latest Report: May 22, 2017 at 9:53 am


Visibility: 9 mi

Pressure: 29.95 "Hg

Humidity: 72%

Dew Point: 51 °F

Location of Santa RosaLocation

Past Weather in Santa Rosa — Graph

°F

Santa Rosa Temperature Yesterday

Maximum temperature yesterday: 87 °F (at 3:53 pm)
Minimum temperature yesterday: 47 °F (at 4:53 am)
Average temperature yesterday: 66 °F

High & Low Weather Summary for the Past Weeks

 TemperatureHumidityPressure
High89 °F (May 20, 2:53 pm)100% (May 8, 6:53 am)30.16 "Hg (May 8, 6:53 am)
Low41 °F (May 12, 6:04 am)21% (May 18, 1:53 pm)29.73 "Hg (May 7, 9:53 am)
Average59 °F67%29.93 "Hg
* Reported May 7 8:53 am — May 22 8:53 am, Santa Rosa. Weather by CustomWeather, © 2017

Note: Actual official high and low records may vary slightly from our data, if they occured in-between our weather recording intervals... More about our weather records

Advertising

Santa Rosa Weather History for the Previous 24 Hours

Scroll right to see more
 ConditionsComfort  
Time TempWeatherWind HumidityBarometerVisibility
8:53 am
Mon, May 22
51 °FFog.No wind96%29.95 "Hg6 mi
8:24 am50 °FFog.No wind96%29.97 "Hg1 mi
7:53 am49 °FFog.No wind100%29.95 "Hg0 mi
7:18 am49 °FFog.No wind100%29.96 "Hg1 mi
6:53 am49 °FFog.3 mph100%29.94 "Hg1 mi
6:20 am49 °FFog.No wind100%29.95 "Hg0 mi
5:53 am49 °FFog.No wind100%29.92 "Hg1 mi
4:53 am49 °FFog.No wind100%29.91 "Hg1 mi
4:07 am49 °FFog.3 mph100%29.94 "Hg1 mi
3:53 am49 °FFog.No wind100%29.92 "Hg1 mi
3:31 am50 °FFog.No wind96%29.94 "Hg3 mi
3:14 am49 °FFog.6 mph100%29.94 "Hg1 mi
2:53 am49 °FFog.5 mph100%29.93 "Hg2 mi
2:30 am49 °FPassing clouds.6 mph97%29.95 "Hg9 mi
1:53 am50 °FClear.6 mph93%29.93 "Hg10 mi
12:53 am51 °FClear.5 mph92%29.92 "Hg10 mi
11:53 pm
Sun, May 21
53 °FClear.5 mph86%29.93 "Hg10 mi
10:53 pm54 °FClear.3 mph86%29.93 "Hg10 mi
9:53 pm57 °FClear.6 mph78%29.91 "Hg10 mi
8:53 pm63 °FClear.7 mph68%29.88 "Hg10 mi
7:53 pm69 °FSunny.8 mph55%29.87 "Hg10 mi
6:53 pm76 °FPartly sunny.8 mph43%29.86 "Hg10 mi
5:53 pm83 °FPartly sunny.8 mph34%29.85 "Hg10 mi
4:53 pm86 °FSunny.12 mph32%29.85 "Hg10 mi
3:53 pm87 °FSunny.10 mph31%29.86 "Hg10 mi
2:53 pm86 °FPassing clouds.12 mph33%29.87 "Hg10 mi
1:53 pm85 °FSunny.8 mph35%29.88 "Hg10 mi
12:53 pm84 °FSunny.8 mph35%29.88 "Hg10 mi
11:53 am81 °FSunny.8 mph37%29.89 "Hg10 mi
10:53 am75 °FSunny.6 mph43%29.90 "Hg10 mi
Weather by CustomWeather, © 2017

See weather overviewHow to use our weather pages